CAPE
3842 3874 3852 3553 3582 3472 3636 3618 3522 3348 3463 3358 3202 2739 3003 2828 2678 2850 2805 2817 2073 2302 2283 1991 1564 2070 2154 2086 2152 2274 1774 1473 1303 1273 1217 1224 1136 1023 1021 973 844 728 615 562 406 381 385 381 437 506 523 258 76 68 19 16 29 32 0 0 0 0 0 0 0 0 0 0 0 0 0 0 0 0 0 0 0 0 0 0 0 0 0 0 0
4013 3781 3635 3733 3731 3514 3468 3694 3521 3250 3448 3470 3351 3001 2939 2908 2746 2891 2945 2759 2494 2354 2357 2185 1954 2029 2129 2066 1995 1893 1540 1410 1457 1389 1256 1248 1050 948 1041 842 637 556 568 448 395 228 266 194 128 169 188 14 28 14 20 1 0 0 0 0 0 0 0 0 0 0 0 0 0 0 0 0 0 0 0 0 0 0 0 0 0 0 0 0 0
3708 3679 3544 3444 3492 3331 3554 3445 3317 3344 3375 3430 3169 2556 2962 2821 2881 2954 2945 2864 2642 2468 2441 2189 1763 1852 1976 1839 1878 1632 1577 1564 1406 1255 1105 1092 961 845 754 745 605 519 465 304 264 189 38 65 95 68 40 22 17 0 0 0 0 0 0 0 0 0 0 0 0 0 0 0 0 0 0 0 0 0 0 0 0 0 0 0 0 0 0 0 0
3779 3618 3420 3470 3480 3364 3416 3206 3166 3362 3232 3388 3243 2982 2964 2874 2822 2894 2840 2890 2723 2504 2463 2196 2039 1845 1834 1909 1952 1614 1422 1346 1237 1199 938 770 836 810 742 748 642 483 379 289 86 140 46 55 112 50 18 9 0 0 0 0 0 0 0 0 0 0 0 0 0 0 0 0 0 0 4 9 0 0 0 0 0 0 0 0 0 0 0 0 0
3700 3380 3520 3720 3626 3502 3340 3386 3352 3324 3393 3302 3342 3200 3012 2873 2847 2512 2887 2912 2676 2624 2198 1967 2053 1736 1881 1918 1935 1866 1552 1372 1191 1071 1062 822 743 801 679 607 601 445 341 239 152 38 53 8 53 14 0 0 0 0 0 0 0 0 0 0 0 0 0 0 0 0 0 0 0 1 5 8 0 0 0 0 0 0 0 0 0 0 0 0 0
3720 3514 3687 3558 3442 3273 3187 2991 3200 3313 3318 3341 3373 3195 3101 2946 2866 2748 2610 2766 2741 2546 2293 1835 1730 1531 1748 1861 1980 1846 1507 1356 1233 1039 978 870 786 790 698 564 551 445 238 56 39 46 2 0 0 0 0 0 0 0 0 0 0 0 0 0 0 0 0 0 0 0 0 0 0 3 0 0 0 0 0 0 0 0 0 0 0 0 0 0 0
3636 3572 3517 3511 3339 3133 2923 3015 3259 3306 3326 3230 3452 3114 2811 2887 2841 2728 2317 2751 2688 2526 2221 1845 1657 1735 1660 1820 1934 1677 1518 1330 1184 976 832 733 596 709 656 604 429 317 162 71 29 1 0 0 0 0 0 0 0 0 0 0 0 0 0 0 0 0 0 0 0 0 0 2 0 2 4 2 0 0 0 0 0 0 0 0 0 0 0 0 0
3808 3640 3590 3727 3450 3084 2899 2988 3367 3353 3226 3267 3378 3154 2746 2834 2787 2686 2506 2656 2663 2420 2385 2229 1778 1661 1673 1814 1824 1689 1382 1269 1125 919 765 675 528 575 596 540 307 124 65 4 0 0 0 0 0 0 0 0 0 0 0 0 0 0 0 0 0 0 0 0 0 0 13 6 4 8 6 3 0 0 0 0 0 0 0 0 0 0 0 0 0
3486 3250 3249 3529 3478 3293 3094 3032 2925 2936 3050 3128 3233 3129 2919 2787 2719 2690 2704 2656 2514 2380 2297 2127 1795 1678 1426 1690 1714 1534 1569 1285 1100 913 763 665 501 528 468 315 188 59 2 0 0 0 0 0 0 0 0 0 0 0 0 0 0 0 0 0 0 0 0 0 0 0 20 14 10 10 3 0 0 0 0 0 0 0 0 0 0 0 0 0 0
3437 3400 3459 3590 3660 3462 3167 3050 2598 2798 2850 3002 3167 3166 3044 2858 2759 2691 2623 2400 2438 2391 2249 2156 1615 1883 1437 1527 1699 1788 1653 1570 1120 897 750 634 476 335 492 154 87 1 0 0 0 0 0 0 0 0 0 0 0 0 0 0 0 0 0 0 0 0 0 0 0 16 14 23 13 0 0 0 0 0 0 0 0 0 0 0 0 0 0 0 0
3613 3599 3608 3723 3682 3418 3117 2963 2929 2892 2906 2555 3030 3161 2689 2746 2739 2632 2508 2299 2554 2366 2191 2056 1554 1486 1443 1356 1632 1714 1721 1492 1109 965 791 732 568 380 380 192 2 1 0 0 0 0 0 0 0 0 0 0 0 0 0 0 0 0 0 0 0 3 0 0 1 16 21 2 0 0 0 0 0 0 0 0 0 0 0 0 0 0 0 0 0
3227 3640 3531 3529 3432 3193 2994 2948 2868 2910 2981 2734 3050 3038 2843 2712 2633 2674 2583 2507 2479 2417 2255 2089 1723 1770 1531 1327 1414 1629 1794 1212 1080 939 854 887 837 648 440 48 9 4 0 0 0 0 0 0 0 0 0 0 0 0 0 0 0 0 0 0 0 0 0 0 90 25 4 0 0 0 0 0 0 0 0 0 0 0 0 0 0 0 0 0 0
3066 3518 3426 3302 3245 3148 2965 2901 2822 2846 2778 2482 2721 2847 2692 2619 2603 2664 2555 2501 2386 2289 2264 2132 1851 1700 1712 1470 1272 1367 1611 1213 1026 969 969 1087 1077 974 742 432 333 2 0 0 0 0 0 0 0 0 0 0 0 0 0 0 0 0 0 0 0 0 0 6 17 10 0 0 0 0 0 0 0 0 0 0 0 0 0 0 0 0 0 0 0
2740 3392 3293 3083 3042 3029 2825 2697 2707 2674 2535 2312 2628 2778 2489 2501 2447 2421 2200 2164 2318 2253 2276 2214 1916 1503 1608 1566 1566 1161 1523 1034 1039 1033 1216 1176 1111 1036 868 611 235 2 1 0 0 0 0 0 0 0 0 0 0 0 0 0 0 0 0 0 0 0 4 18 18 2 0 0 0 0 0 0 0 0 0 0 0 0 0 0 0 0 0 0 0
2350 3049 3150 2915 2924 2796 2671 2685 2621 2554 2307 2243 2340 2457 2320 2361 2324 2279 2162 2208 2160 2058 2241 2124 1950 1576 1387 1391 1203 1486 944 1022 1175 1410 1276 1154 1081 1002 894 706 494 192 1 0 32 2 0 0 0 0 0 0 0 0 0 0 0 0 0 0 0 5 19 29 18 0 0 0 0 0 0 0 0 0 0 0 0 0 0 0 0 0 0 0 0
2217 3245 2999 2797 2841 2782 2751 2646 2561 2568 2490 2266 2518 2327 2365 2335 2222 2158 2154 2252 2036 2016 1800 1813 1695 1638 1528 1390 1391 1205 998 1111 1370 1398 1280 1191 1008 782 710 739 585 386 3 207 232 186 120 0 0 0 0 0 0 0 0 0 0 0 0 0 3 15 31 38 16 3 0 3 0 0 2 4 2 0 0 37 0 0 0 0 0 0 0 0 0
2532 2909 2858 2882 2791 2886 2786 2651 2501 2346 2320 2415 2602 2448 2267 2239 2241 1892 2143 2320 2197 1977 1735 1715 1700 1662 1609 1449 1186 996 1036 1184 1366 1358 1270 1140 941 645 517 673 643 514 381 241 259 260 214 126 0 0 0 0 0 0 0 0 0 0 0 1 10 17 33 41 15 1 0 0 0 0 0 0 0 0 0 0 0 0 0 0 0 0 0 0 0
2690 2826 2962 2925 2918 2851 2695 2577 2530 2464 2308 2260 2263 2072 2218 2116 2088 1824 2239 2017 1803 1750 1640 1759 1790 1700 1629 1582 1338 1085 1205 1244 1380 1342 1203 1066 915 628 423 534 625 500 356 280 274 306 298 240 174 0 69 139 91 0 0 0 0 0 0 4 12 24 27 33 8 0 0 0 0 0 0 0 0 0 0 0 0 0 0 0 0 0 0 0 0
2454 2749 2959 2894 2769 2796 2636 2396 2290 2243 1988 2277 2282 2063 1963 1962 1715 1987 2132 1914 1696 1623 1600 1763 1836 1742 1637 1606 1434 1130 1231 1370 1412 1257 1173 984 907 742 547 471 539 472 364 338 327 314 349 314 222 179 166 159 122 0 0 0 0 0 0 1 13 24 30 19 1 0 0 0 0 0 0 0 0 0 0 0 0 0 0 0 0 0 0 0 0
2202 2614 2808 2672 2607 2474 2529 2322 2231 2213 2200 2248 2300 2086 1892 1904 2055 2033 2018 1864 1588 1529 1577 1719 1764 1651 1541 1465 1341 1082 1182 1497 1398 1203 1054 882 820 804 688 472 516 464 436 357 362 347 349 369 298 192 198 174 137 52 0 0 0 0 1 7 14 17 23 14 0 0 0 0 0 0 0 0 0 0 0 0 0 0 0 0 0 0 0 0 0
1689 1948 2519 2494 2400 2451 2379 2281 2316 2407 2202 2146 2059 1886 1835 2024 2149 2150 2067 1679 1512 1465 1504 1512 1493 1471 1420 1354 1174 1044 1227 1361 1175 1064 875 796 835 790 799 726 586 500 467 426 400 385 370 384 366 245 210 186 145 38 0 0 1 3 0 1 0 34 11 5 0 0 0 0 0 0 0 0 0 0 0 0 0 0 0 0 0 0 0 0 0
1922 1980 2193 2422 2429 2359 2361 2265 2552 2447 2191 1971 1931 1901 1858 1974 2124 2087 1883 1622 1492 1439 1418 1395 1314 1301 1208 983 761 875 1108 1105 1114 1072 953 1006 993 799 771 941 895 721 583 482 438 428 404 402 413 313 223 194 150 0 0 1 3 0 7 11 6 8 14 2 0 0 0 0 0 0 0 0 0 0 0 0 0 0 0 0 0 0 0 0 0
1692 1772 2113 2031 2123 2246 2341 2436 2386 2310 2163 2031 1968 1920 1968 2004 2042 1812 1608 1564 1474 1404 1396 1299 1321 1310 1068 668 467 720 1022 1102 1093 1130 1048 952 794 691 723 786 729 650 534 474 443 505 464 459 476 367 253 205 50 0 0 1 28 29 32 25 26 31 22 0 0 0 0 0 0 0 0 0 0 0 0 0 0 0 0 0 0 0 0 0 0
1826 1910 1954 2029 2198 2340 2400 2417 2475 2302 2130 2039 1998 1958 1974 2022 1866 1624 1618 1555 1406 1339 1302 1308 1324 1120 820 549 433 699 1020 1076 1043 1126 1105 945 735 659 510 394 484 533 520 501 463 501 515 557 471 394 256 198 130 24 0 3 27 43 28 22 27 23 7 0 0 0 0 0 0 0 0 0 0 0 0 0 0 0 0 0 0 0 0 0 0
1925 2134 2346 2292 2293 2362 2233 2260 2272 2283 2081 2044 2038 1951 1956 1882 1842 1728 1581 1502 1395 1355 1312 1318 1287 982 745 560 445 521 892 1067 1103 1193 1170 975 884 815 696 561 459 361 341 358 416 436 496 520 420 347 273 205 140 9 0 0 6 18 27 32 31 3 0 0 0 0 0 0 0 0 0 0 0 0 0 0 0 0 0 0 0 0 0 0 0
1946 2239 2323 2351 2332 2296 2248 2201 2085 2056 2133 1954 1981 2011 2005 1852 1829 1957 1955 1818 1464 1356 1259 1248 1066 834 698 642 549 474 569 909 1154 1246 1228 1033 939 822 766 710 603 409 296 262 298 382 440 431 364 337 273 219 130 0 0 5 19 27 41 28 0 0 0 0 0 0 0 0 0 0 0 0 0 0 0 0 0 0 0 0 0 0 0 0 0
2184 2159 2306 2317 2378 2332 2294 2226 2168 2192 2206 2158 2001 1948 2029 2116 1904 1807 1894 1801 1688 1508 1239 1010 927 838 790 754 725 778 647 745 1010 1217 1143 1069 960 866 728 704 612 452 394 358 319 268 287 327 361 304 240 179 105 0 0 3 18 35 9 0 0 0 0 0 0 0 0 0 0 0 0 0 0 0 0 0 0 0 0 0 0 0 0 0 0
1612 1992 2338 2365 2298 2377 2475 2102 2238 2375 2305 2426 2114 1934 1745 1724 1804 1742 1720 1704 1694 1646 1467 1118 915 824 876 880 919 939 915 770 741 969 1025 1006 957 606 480 787 612 525 480 500 434 240 253 314 294 245 194 118 0 1 0 0 0 0 0 0 0 0 0 0 0 0 0 0 0 0 0 0 0 0 0 0 2 2 0 0 0 0 0 0 0
1194 1513 1524 1669 1816 1840 2112 2216 2313 2180 2039 1835 1766 1731 1749 1712 1691 1713 1765 1685 1661 1608 1487 1249 1045 951 768 706 786 828 878 840 741 723 903 879 815 586 727 743 657 587 500 348 198 2 97 150 172 171 96 76 41 3 0 0 0 0 0 0 0 0 0 0 0 0 0 0 0 0 0 0 0 0 1 2 1 4 4 0 0 0 0 0 0
1198 1249 1304 1557 1614 1796 1719 1947 1915 1732 1771 1784 1786 1770 1699 1704 1651 1607 1640 1523 1502 1466 1375 1282 1233 1212 1149 1035 804 705 764 750 632 435 393 370 500 638 695 751 584 181 257 364 111 0 93 41 78 59 88 56 30 2 0 0 0 0 0 0 0 0 0 0 0 0 0 0 0 0 0 0 0 0 0 0 0 1 0 0 0 0 0 0 0
1198 1273 1276 1384 1470 1458 1692 1886 1752 1456 1525 1566 1430 1637 1604 1556 1512 1485 1402 1362 1277 1247 1207 1196 1170 1099 1012 979 820 669 700 638 647 583 567 567 360 292 537 499 399 280 179 0 0 0 7 112 73 63 42 30 0 0 0 0 58 5 0 0 0 0 0 0 0 0 0 0 0 0 0 0 0 0 0 0 0 0 0 0 0 0 0 0 0
853 905 970 948 1166 1276 1327 1385 1387 1427 1454 1584 1383 1319 1333 1374 1323 1353 1314 1201 1086 1002 982 1045 1087 1097 1069 1020 956 869 817 748 695 584 636 494 401 407 514 560 392 27 0 11 0 0 0 105 86 44 1 0 0 0 0 0 0 0 0 0 0 0 0 0 0 0 0 0 0 0 0 0 0 0 0 0 0 0 0 0 0 0 0 0 0
636 654 713 842 1098 1210 1183 1039 1057 1117 1160 1296 1408 1364 1359 1394 1413 1399 1348 1405 1438 1395 1263 1109 1004 981 960 990 952 910 903 725 448 345 383 348 81 112 373 383 133 72 11 0 99 25 88 119 69 45 0 0 0 0 0 0 0 0 0 0 0 0 0 0 0 0 0 0 0 0 2 0 0 0 0 0 0 0 0 0 0 0 0 0 0
343 518 539 584 642 618 657 727 815 962 1013 1039 1073 1092 1101 1124 1205 1183 1232 1232 1262 1369 1471 1464 1417 1155 1038 973 928 944 939 794 580 364 59 50 236 216 272 292 258 174 102 164 166 130 136 150 60 64 0 0 0 0 0 0 1 4 2 0 0 0 0 0 0 0 0 0 0 4 4 2 2 2 1 0 0 0 0 0 0 0 0 0 0
255 92 309 369 348 369 403 412 414 410 509 640 744 836 863 857 842 870 882 929 930 1008 1044 1075 1100 1165 1133 1067 949 876 785 583 446 284 0 2 92 283 342 326 213 144 116 84 91 109 124 130 65 34 0 0 0 5 0 0 2 3 0 0 0 0 0 0 0 0 0 2 1 2 3 4 2 2 0 0 0 0 0 0 0 0 0 0 0
211 167 209 235 175 152 131 78 266 270 263 329 398 467 488 465 495 556 529 527 523 513 548 594 691 826 969 978 863 716 553 369 252 146 0 0 22 159 194 269 239 235 111 2 38 120 49 56 58 3 0 12 47 27 0 0 12 4 1 0 0 0 0 0 0 0 0 0 0 0 0 0 0 0 0 0 0 0 0 0 0 0 0 0 0
2 87 201 230 202 112 181 146 117 138 158 210 274 339 424 470 479 474 491 490 495 477 465 456 497 522 465 377 366 399 398 264 231 194 117 18 31 96 186 267 259 176 42 21 100 73 56 33 2 0 25 43 2 0 0 0 2 3 2 0 0 0 0 0 0 0 0 0 0 0 0 0 0 0 0 0 0 0 0 0 0 0 0 0 0
129 135 164 33 113 10 5 3 196 183 6 2 51 108 219 290 307 331 351 367 374 399 390 428 404 350 315 275 250 201 285 198 71 0 26 72 119 183 220 234 203 138 37 20 4 11 12 24 10 3 3 2 1 0 0 0 2 4 2 0 0 0 0 0 1 1 0 0 0 0 0 0 0 0 0 0 0 0 0 0 0 0 0 0 0
2 0 1 57 0 0 3 112 196 106 196 2 2 4 43 122 157 173 97 185 229 233 231 284 334 360 332 290 261 43 49 241 118 30 10 39 51 1 160 123 30 29 22 38 10 33 30 10 2 2 16 19 5 0 11 9 13 10 6 1 0 0 0 0 1 1 2 0 0 0 0 0 0 0 0 0 0 0 0 0 0 0 0 0 0
2 2 4 0 2 0 0 1 2 2 2 3 2 30 74 109 147 182 204 196 193 180 147 95 146 0 0 4 28 34 45 181 234 90 75 75 88 87 8 18 26 23 61 71 2 16 16 5 8 9 16 17 31 51 54 12 20 12 6 1 6 4 1 0 0 3 3 0 0 0 0 0 0 0 0 0 0 0 0 0 0 0 0 0 0
7 3 0 0 34 2 4 68 114 103 2 6 10 19 27 30 51 64 44 26 17 20 35 78 76 52 45 31 20 15 10 17 14 2 39 69 64 64 42 42 27 5 3 1 0 0 0 5 30 29 23 20 40 0 1 12 9 3 10 3 1 0 0 0 0 4 1 0 0 0 0 0 0 0 0 0 0 0 0 0 0 0 2 4 4
4 3 1 49 73 60 61 5 8 5 2 2 2 1 2 40 132 170 181 160 112 100 104 111 103 30 28 5 12 36 7 7 4 41 83 93 71 64 48 25 3 7 6 13 47 61 49 14 14 37 37 39 48 26 17 17 3 0 0 0 0 0 2 0 0 2 0 0 0 0 0 0 0 0 0 0 0 0 0 0 0 2 5 5 3
6 4 3 1 40 71 74 1 0 2 2 1 2 0 0 3 57 100 74 75 76 67 60 53 43 26 23 29 7 22 23 9 2 4 14 39 61 77 89 82 21 15 7 4 12 5 2 5 40 49 46 37 30 10 11 1 3 0 0 0 0 0 0 3 2 2 0 0 0 0 0 3 4 1 0 0 0 0 0 0 0 1 3 4 3
6 6 2 0 6 24 74 85 16 12 5 1 0 0 1 1 0 0 4 0 2 1 6 7 2 7 3 0 1 1 3 7 16 21 21 18 5 0 0 3 3 12 6 2 7 6 1 22 23 20 20 13 4 3 9 22 0 0 0 0 0 0 0 0 0 0 0 0 0 0 1 1 0 0 0 0 0 0 0 0 0 0 1 1 1
2 4 6 4 0 3 5 4 14 26 1 1 5 3 1 1 4 8 2 2 3 12 26 32 25 26 24 14 2 0 1 13 26 26 15 11 10 9 11 7 14 22 29 20 5 8 29 34 38 17 13 2 0 1 5 0 0 1 3 1 1 1 0 0 0 0 0 0 0 4 4 4 1 0 0 0 0 0 0 0 0 0 0 0 0
0 1 3 4 2 1 8 9 5 19 10 16 15 7 6 4 4 4 7 8 13 14 15 17 19 19 21 21 22 22 25 22 18 21 21 20 15 14 14 23 4 4 2 4 5 2 4 10 4 4 3 0 0 0 0 0 0 3 5 0 0 0 0 0 0 0 0 0 1 0 1 2 2 0 0 0 0 0 0 0 0 0 0 0 0
4 3 4 4 1 0 3 7 5 1 7 3 4 9 11 12 9 3 7 8 11 13 13 15 23 22 21 18 12 11 8 7 4 4 6 6 5 9 23 0 0 0 0 0 1 4 2 1 0 1 2 1 1 1 5 0 0 0 0 2 1 0 0 0 6 5 0 0 0 0 0 0 0 1 0 0 0 0 0 0 0 0 0 0 0
9 8 5 3 1 1 5 4 1 1 1 3 1 2 5 10 11 7 9 8 8 9 14 10 14 15 16 11 15 12 11 11 10 8 6 2 1 2 2 2 2 0 0 1 2 1 1 0 0 2 3 2 4 10 7 1 0 3 4 4 0 1 0 0 0 0 0 0 0 0 0 0 0 0 3 5 2 0 0 0 1 0 0 0 0
2 0 0 0 1 1 3 3 2 5 4 6 11 2 9 7 3 4 12 9 4 4 26 14 5 5 4 4 3 0 0 0 0 0 1 3 5 3 2 1 2 2 1 0 0 1 3 4 3 2 1 2 3 5 9 12 13 10 6 4 6 3 0 0 0 0 0 0 0 0 0 0 0 1 1 1 1 0 0 0 0 0 0 0 0
2 4 2 0 0 1 0 0 4 10 10 11 6 4 4 4 2 2 8 7 3 3 14 18 24 33 19 9 4 1 0 0 0 0 0 0 0 0 0 1 1 2 1 1 1 0 1 1 1 0 0 0 0 0 0 0 0 0 0 0 0 4 6 6 2 0 0 0 2 1 1 0 0 2 1 0 0 0 0 0 0 0 2 3 2
0 0 1 2 2 0 0 0 0 2 13 12 23 19 7 5 5 4 1 2 6 3 1 2 4 5 4 4 1 1 1 1 0 0 2 0 0 0 0 0 2 1 0 0 0 3 5 2 2 0 0 0 0 0 1 2 3 2 4 2 1 2 4 6 3 0 1 1 1 3 2 0 0 0 0 0 0 0 0 0 1 4 2 0 0
Wind_Speed
40 41 39 30 24 19 20 20 20 19 19 19 20 22 27 30 33 36 36 35 36 38 36 34 32 30 30 27 26 26 26 27 25 23 23 22 22 22 21 21 21 20 19 21 20 19 20 21 23 24 23 23 nan nan nan nan nan nan nan nan nan nan nan nan nan nan nan nan nan nan nan nan nan nan nan nan nan nan nan nan nan nan nan nan nan
39 40 39 33 25 21 19 23 22 21 22 21 22 25 28 29 33 36 35 34 35 37 36 32 29 29 28 27 25 26 26 26 25 23 23 23 21 22 21 21 21 19 19 19 22 21 20 21 23 25 25 nan nan nan nan nan nan nan nan nan nan nan nan nan nan nan nan nan nan nan nan nan nan nan nan nan nan nan nan nan nan nan nan nan nan
40 41 39 33 27 23 23 23 23 23 21 22 21 25 30 29 32 35 35 35 34 34 33 30 29 28 27 26 26 26 26 25 24 24 23 23 22 23 22 21 21 20 19 19 19 20 nan nan nan nan nan nan nan nan nan nan nan nan nan nan nan nan nan nan nan nan nan nan nan nan nan nan nan nan nan nan nan nan nan nan nan nan nan nan nan
43 41 40 35 29 26 25 24 24 24 23 24 23 24 30 30 31 34 36 35 33 31 31 30 29 28 27 28 27 27 27 26 25 24 23 23 22 22 23 21 22 21 19 19 nan 18 nan nan 21 nan nan nan nan nan nan nan nan nan nan nan nan nan nan nan nan nan nan nan nan nan nan nan nan nan nan nan nan nan nan nan nan nan nan nan nan
43 40 41 37 33 30 27 27 28 25 23 24 23 26 29 31 32 34 36 35 33 31 29 29 29 29 29 29 29 28 27 26 26 25 24 24 23 23 24 22 21 20 20 19 18 nan nan nan nan nan nan nan nan nan nan nan nan nan nan nan nan nan nan nan nan nan nan nan nan nan nan nan nan nan nan nan nan nan nan nan nan nan nan nan nan
42 40 41 39 35 30 27 28 30 26 21 22 26 29 30 30 31 33 34 35 34 30 28 28 28 30 31 32 31 30 27 25 24 25 24 24 23 24 26 23 22 21 20 nan nan nan nan nan nan nan nan nan nan nan nan nan nan nan nan nan nan nan nan nan nan nan nan nan nan nan nan nan nan nan nan nan nan nan nan nan nan nan nan nan nan
42 40 42 41 36 33 30 30 32 29 24 23 27 30 30 30 30 31 33 35 35 31 27 27 28 29 33 34 33 30 27 25 25 25 25 24 25 25 25 24 22 22 21 nan nan nan nan nan nan nan nan nan nan nan nan nan nan nan nan nan nan nan nan nan nan nan nan nan nan nan nan nan nan nan nan nan nan nan nan nan nan nan nan nan nan
43 41 43 43 39 35 33 33 33 31 26 23 27 31 31 32 31 31 32 34 36 33 28 26 28 30 33 35 34 31 27 26 25 26 26 25 27 26 25 25 23 22 nan nan nan nan nan nan nan nan nan nan nan nan nan nan nan nan nan nan nan nan nan nan nan nan nan nan nan nan nan nan nan nan nan nan nan nan nan nan nan nan nan nan nan
45 40 42 45 42 38 37 37 35 33 29 25 27 30 33 32 31 33 34 33 36 35 29 27 29 31 32 35 35 32 28 25 25 27 27 28 29 26 24 25 24 nan nan nan nan nan nan nan nan nan nan nan nan nan nan nan nan nan nan nan nan nan nan nan nan nan nan nan nan nan nan nan nan nan nan nan nan nan nan nan nan nan nan nan nan
47 42 41 45 45 40 39 41 37 35 33 29 27 29 34 37 35 35 36 33 35 37 31 27 29 31 32 34 34 33 29 27 28 31 30 30 29 27 27 26 nan nan nan nan nan nan nan nan nan nan nan nan nan nan nan nan nan nan nan nan nan nan nan nan nan nan nan nan nan nan nan nan nan nan nan nan nan nan nan nan nan nan nan nan nan
47 46 43 44 44 42 42 41 39 38 37 33 31 30 33 41 40 36 36 34 36 39 32 29 29 31 32 34 34 32 31 30 34 35 36 32 29 29 28 26 nan nan nan nan nan nan nan nan nan nan nan nan nan nan nan nan nan nan nan nan nan nan nan nan nan nan nan nan nan nan nan nan nan nan nan nan nan nan nan nan nan nan nan nan nan
45 47 45 42 43 44 43 41 41 41 40 35 33 31 35 43 43 41 39 35 37 40 33 28 30 31 32 33 32 31 31 38 41 41 40 37 31 30 29 nan nan nan nan nan nan nan nan nan nan nan nan nan nan nan nan nan nan nan nan nan nan nan nan nan nan nan nan nan nan nan nan nan nan nan nan nan nan nan nan nan nan nan nan nan nan
45 46 45 44 45 48 45 42 41 42 40 36 35 35 37 45 45 44 41 39 39 38 34 29 30 32 33 33 33 32 31 42 44 44 42 40 33 28 30 28 28 nan nan nan nan nan nan nan nan nan nan nan nan nan nan nan nan nan nan nan nan nan nan nan nan nan nan nan nan nan nan nan nan nan nan nan nan nan nan nan nan nan nan nan nan
45 46 46 46 47 49 47 46 44 43 41 39 40 38 39 47 46 44 43 43 40 37 34 29 31 33 36 36 34 31 32 41 45 44 43 41 39 35 32 30 28 nan nan nan nan nan nan nan nan nan nan nan nan nan nan nan nan nan nan nan nan nan nan nan nan nan nan nan nan nan nan nan nan nan nan nan nan nan nan nan nan nan nan nan nan
42 46 48 49 49 49 50 49 48 46 43 41 41 39 43 48 46 46 44 42 38 38 36 31 31 35 39 39 37 33 34 43 46 44 42 42 41 38 33 31 29 28 nan nan nan nan nan nan nan nan nan nan nan nan nan nan nan nan nan nan nan nan nan nan nan nan nan nan nan nan nan nan nan nan nan nan nan nan nan nan nan nan nan nan nan
37 45 49 51 50 51 51 50 50 49 46 44 43 41 46 47 45 45 45 41 39 38 34 32 34 38 41 41 37 33 37 45 47 45 44 42 43 38 35 31 29 29 nan 30 31 31 31 nan nan nan nan nan nan nan nan nan nan nan nan nan nan nan nan nan nan nan nan nan nan nan nan nan nan nan nan nan nan nan nan nan nan nan nan nan nan
42 46 50 51 50 50 50 51 50 49 47 45 44 44 46 45 46 45 43 41 40 38 35 35 37 39 40 39 37 34 40 42 47 47 45 44 42 38 37 33 31 30 30 31 31 31 32 34 nan nan nan nan nan nan nan nan nan nan nan nan nan nan nan nan nan nan nan nan nan nan nan nan nan nan nan nan nan nan nan nan nan nan nan nan nan
46 47 48 48 47 48 49 49 49 47 45 41 40 43 48 48 46 44 40 39 38 38 37 38 37 37 38 37 36 34 40 42 48 48 48 45 42 39 37 35 31 31 31 31 32 33 33 36 36 nan nan 40 nan nan nan nan nan nan nan nan nan nan nan nan nan nan nan nan nan nan nan nan nan nan nan nan nan nan nan nan nan nan nan nan nan
47 46 45 45 45 45 46 45 44 42 40 40 42 46 48 45 42 42 39 38 38 38 37 36 36 37 37 35 37 35 41 43 47 50 49 47 43 39 38 35 33 33 32 33 33 34 34 36 36 35 37 47 55 nan nan nan nan nan nan nan nan nan nan nan nan nan nan nan nan nan nan nan nan nan nan nan nan nan nan nan nan nan nan nan nan
48 46 45 44 44 43 42 41 41 40 38 43 47 47 47 44 43 42 41 38 39 37 38 36 37 38 38 37 40 36 41 43 45 50 50 48 44 42 39 36 34 34 34 35 36 34 34 35 38 39 49 56 55 nan nan nan nan nan nan nan nan nan nan nan nan nan nan nan nan nan nan nan nan nan nan nan nan nan nan nan nan nan nan nan nan
48 44 43 44 43 41 39 38 39 41 42 45 47 46 45 42 42 42 39 37 39 38 39 38 38 38 38 39 39 37 39 43 44 49 50 48 44 42 41 38 36 36 37 37 36 36 35 36 37 49 54 55 56 nan nan nan nan nan nan nan nan nan nan nan nan nan nan nan nan nan nan nan nan nan nan nan nan nan nan nan nan nan nan nan nan
47 45 42 44 43 40 39 38 41 44 44 45 44 43 42 41 41 42 40 40 39 38 39 40 39 41 40 40 38 37 41 47 45 46 49 47 44 39 40 41 40 39 39 37 38 37 37 37 39 49 56 56 55 nan nan nan nan nan nan nan nan nan nan nan nan nan nan nan nan nan nan nan nan nan nan nan nan nan nan nan nan nan nan nan nan
46 46 45 44 43 40 40 41 43 41 42 41 41 40 42 42 42 42 40 40 39 38 38 40 40 41 41 39 40 39 43 45 51 47 47 48 45 40 39 43 42 42 40 38 38 39 39 39 47 56 58 57 nan nan nan nan nan nan nan nan nan nan nan nan nan nan nan nan nan nan nan nan nan nan nan nan nan nan nan nan nan nan nan nan nan
45 46 47 45 43 43 43 44 46 41 40 41 42 43 43 42 43 42 41 40 39 37 38 39 41 41 42 40 41 43 45 43 45 49 46 45 44 41 39 44 46 42 42 40 40 40 41 46 49 58 60 59 56 nan nan nan nan nan nan nan nan nan nan nan nan nan nan nan nan nan nan nan nan nan nan nan nan nan nan nan nan nan nan nan nan
48 49 50 47 47 46 44 45 44 42 41 42 43 42 41 41 41 40 40 38 37 36 37 39 42 41 40 41 41 41 43 43 42 41 45 45 44 43 41 43 41 43 44 43 42 42 50 55 56 57 57 55 54 nan nan nan nan nan nan nan nan nan nan nan nan nan nan nan nan nan nan nan nan nan nan nan nan nan nan nan nan nan nan nan nan
49 48 47 46 43 42 41 41 38 38 40 41 41 39 39 39 38 37 38 39 39 38 39 42 42 42 39 38 38 38 40 41 39 39 40 42 42 42 46 44 44 46 50 53 57 59 59 57 55 53 53 53 51 nan nan nan nan nan nan nan nan nan nan nan nan nan nan nan nan nan nan nan nan nan nan nan nan nan nan nan nan nan nan nan nan
50 47 46 44 43 42 42 41 41 40 39 41 40 41 41 40 38 38 40 42 44 43 43 43 40 38 38 39 38 36 36 39 40 40 43 46 45 45 46 44 45 50 53 52 54 53 54 51 48 47 47 51 49 nan nan nan nan nan nan nan nan nan nan nan nan nan nan nan nan nan nan nan nan nan nan nan nan nan nan nan nan nan nan nan nan
61 53 50 49 46 43 44 46 43 41 41 43 42 42 44 44 40 41 41 43 45 43 44 44 39 38 40 40 38 36 38 41 42 43 45 49 49 48 46 44 44 45 49 51 50 51 50 50 50 46 47 46 nan nan nan nan nan nan nan nan nan nan nan nan nan nan nan nan nan nan nan nan nan nan nan nan nan nan nan nan nan nan nan nan nan
47 46 52 51 48 46 45 43 41 44 45 47 48 45 45 43 46 48 46 45 47 48 47 44 39 39 40 39 37 35 38 41 41 45 49 51 53 51 49 46 45 47 50 57 56 nan nan 47 45 44 nan nan nan nan nan nan nan nan nan nan nan nan nan nan nan nan nan nan nan nan nan nan nan nan nan nan nan nan nan nan nan nan nan nan nan
39 41 44 44 43 42 43 42 43 45 45 44 44 47 53 56 51 46 46 44 45 45 47 44 40 36 35 37 38 38 39 39 51 57 53 49 47 51 52 53 53 52 56 60 53 nan nan nan nan nan nan nan nan nan nan nan nan nan nan nan nan nan nan nan nan nan nan nan nan nan nan nan nan nan nan nan nan nan nan nan nan nan nan nan nan
39 37 41 43 45 44 41 42 42 42 42 43 43 45 46 51 59 61 57 49 42 41 40 45 45 41 39 40 48 48 46 56 59 53 54 54 53 50 53 55 57 57 55 nan nan nan nan 44 nan nan nan nan nan nan nan nan nan nan nan nan nan nan nan nan nan nan nan nan nan nan nan nan nan nan nan nan nan nan nan nan nan nan nan nan nan
42 41 40 40 44 46 46 48 46 44 43 45 47 47 47 49 50 58 59 56 49 43 47 49 52 54 55 54 49 49 54 56 55 54 53 55 54 55 54 54 56 nan nan nan nan nan nan 43 nan nan nan nan nan nan nan nan nan nan nan nan nan nan nan nan nan nan nan nan nan nan nan nan nan nan nan nan nan nan nan nan nan nan nan nan nan
41 42 43 43 41 44 45 46 46 45 45 45 47 48 47 48 48 47 52 56 55 50 47 51 52 51 52 50 51 52 52 53 54 54 55 55 nan 56 58 57 57 nan nan nan nan nan nan 38 nan nan nan nan nan nan nan nan nan nan nan nan nan nan nan nan nan nan nan nan nan nan nan nan nan nan nan nan nan nan nan nan nan nan nan nan nan
42 43 44 45 47 49 48 46 46 46 45 46 46 45 44 44 44 45 44 43 45 48 50 47 44 48 47 49 50 52 54 55 55 56 nan nan 59 61 61 56 55 56 56 51 49 42 36 34 nan nan nan nan nan nan nan nan nan nan nan nan nan nan nan nan nan nan nan nan nan nan nan nan nan nan nan nan nan nan nan nan nan nan nan nan nan
41 nan 42 46 47 49 51 51 50 48 47 46 45 43 42 42 45 44 40 37 38 39 39 41 42 41 46 48 51 55 57 56 56 57 nan nan nan 67 67 63 59 49 46 nan nan 36 32 32 nan nan nan nan nan nan nan nan nan nan nan nan nan nan nan nan nan nan nan nan nan nan nan nan nan nan nan nan nan nan nan nan nan nan nan nan nan
42 42 43 44 45 47 47 nan 46 45 44 44 44 44 41 43 45 41 41 41 39 40 42 42 44 47 48 50 54 58 59 58 56 57 nan nan nan 68 60 56 56 51 44 nan nan 34 nan nan nan nan nan nan nan nan nan nan nan nan nan nan nan nan nan nan nan nan nan nan nan nan nan nan nan nan nan nan nan nan nan nan nan nan nan nan nan
nan nan 45 45 45 46 46 45 47 48 49 47 46 44 45 46 42 41 42 42 42 44 44 49 51 51 54 56 58 59 60 61 60 60 61 nan nan nan 54 53 50 46 nan nan 33 nan nan nan nan nan nan nan nan nan nan nan nan nan nan nan nan nan nan nan nan nan nan nan nan nan nan nan nan nan nan nan nan nan nan nan nan nan nan nan nan
52 51 50 nan 47 nan nan nan 49 47 nan nan nan 47 48 45 44 43 44 44 45 45 48 49 51 53 54 57 59 61 64 66 nan nan nan nan 57 51 48 44 39 36 nan nan nan nan nan nan nan nan nan nan nan nan nan nan nan nan nan nan nan nan nan nan nan nan nan nan nan nan nan nan nan nan nan nan nan nan nan nan nan nan nan nan nan
nan nan nan nan nan nan nan 50 50 49 49 nan nan nan nan 46 45 45 nan 48 49 49 50 51 53 54 56 60 61 nan nan 61 56 nan nan nan nan nan 39 35 nan nan nan nan nan nan nan nan nan nan nan nan nan nan nan nan nan nan nan nan nan nan nan nan nan nan nan nan nan nan nan nan nan nan nan nan nan nan nan nan nan nan nan nan nan
nan nan nan nan nan nan nan nan nan nan nan nan nan nan nan 48 47 48 48 50 51 52 52 nan 54 nan nan nan nan nan nan 52 50 nan nan nan nan nan nan nan nan nan nan nan nan nan nan nan nan nan nan nan nan nan nan nan nan nan nan nan nan nan nan nan nan nan nan nan nan nan nan nan nan nan nan nan nan nan nan nan nan nan nan nan nan
nan nan nan nan nan nan nan nan 53 51 nan nan nan nan nan nan nan nan nan nan nan nan nan nan nan nan nan nan nan nan nan nan nan nan nan nan nan nan nan nan nan nan nan nan nan nan nan nan nan nan nan nan nan nan nan nan nan nan nan nan nan nan nan nan nan nan nan nan nan nan nan nan nan nan nan nan nan nan nan nan nan nan nan nan nan
nan nan nan nan nan nan nan nan nan nan nan nan nan nan nan nan 51 52 54 55 53 55 55 55 54 nan nan nan nan nan nan nan nan nan nan nan nan nan nan nan nan nan nan nan nan nan nan nan nan nan nan nan nan nan nan nan nan nan nan nan nan nan nan nan nan nan nan nan nan nan nan nan nan nan nan nan nan nan nan nan nan nan nan nan nan
nan nan nan nan nan nan nan nan nan nan nan nan nan nan nan nan nan nan nan nan nan nan nan nan nan nan nan nan nan nan nan nan nan nan nan nan nan nan nan nan nan nan nan nan nan nan nan nan nan nan nan nan nan nan nan nan nan nan nan nan nan nan nan nan nan nan nan nan nan nan nan nan nan nan nan nan nan nan nan nan nan nan nan nan nan
nan nan nan nan nan nan nan nan nan nan nan nan nan nan nan nan nan nan nan nan nan nan nan nan nan nan nan nan nan nan nan nan nan nan nan nan nan nan nan nan nan nan nan nan nan nan nan nan nan nan nan nan nan nan nan nan nan nan nan nan nan nan nan nan nan nan nan nan nan nan nan nan nan nan nan nan nan nan nan nan nan nan nan nan nan
nan nan nan nan nan nan nan nan nan nan nan nan nan nan nan nan nan nan nan nan nan nan nan nan nan nan nan nan nan nan nan nan nan nan nan nan nan nan nan nan nan nan nan nan nan nan nan nan nan nan nan nan nan nan nan nan nan nan nan nan nan nan nan nan nan nan nan nan nan nan nan nan nan nan nan nan nan nan nan nan nan nan nan nan nan
nan nan nan nan nan nan nan nan nan nan nan nan nan nan nan nan nan nan nan nan nan nan nan nan nan nan nan nan nan nan nan nan nan nan nan nan nan nan nan nan nan nan nan nan nan nan nan nan nan nan nan nan nan nan nan nan nan nan nan nan nan nan nan nan nan nan nan nan nan nan nan nan nan nan nan nan nan nan nan nan nan nan nan nan nan
nan nan nan nan nan nan nan nan nan nan nan nan nan nan nan nan nan nan nan nan nan nan nan nan nan nan nan nan nan nan nan nan nan nan nan nan nan nan nan nan nan nan nan nan nan nan nan nan nan nan nan nan nan nan nan nan nan nan nan nan nan nan nan nan nan nan nan nan nan nan nan nan nan nan nan nan nan nan nan nan nan nan nan nan nan
nan nan nan nan nan nan nan nan nan nan nan nan nan nan nan nan nan nan nan nan nan nan nan nan nan nan nan nan nan nan nan nan nan nan nan nan nan nan nan nan nan nan nan nan nan nan nan nan nan nan nan nan nan nan nan nan nan nan nan nan nan nan nan nan nan nan nan nan nan nan nan nan nan nan nan nan nan nan nan nan nan nan nan nan nan
nan nan nan nan nan nan nan nan nan nan nan nan nan nan nan nan nan nan nan nan nan nan nan nan nan nan nan nan nan nan nan nan nan nan nan nan nan nan nan nan nan nan nan nan nan nan nan nan nan nan nan nan nan nan nan nan nan nan nan nan nan nan nan nan nan nan nan nan nan nan nan nan nan nan nan nan nan nan nan nan nan nan nan nan nan
nan nan nan nan nan nan nan nan nan nan nan nan nan nan nan nan nan nan nan nan nan nan nan nan nan nan nan nan nan nan nan nan nan nan nan nan nan nan nan nan nan nan nan nan nan nan nan nan nan nan nan nan nan nan nan nan nan nan nan nan nan nan nan nan nan nan nan nan nan nan nan nan nan nan nan nan nan nan nan nan nan nan nan nan nan
nan nan nan nan nan nan nan nan nan nan nan nan nan nan nan nan nan nan nan nan nan nan nan nan nan nan nan nan nan nan nan nan nan nan nan nan nan nan nan nan nan nan nan nan nan nan nan nan nan nan nan nan nan nan nan nan nan nan nan nan nan nan nan nan nan nan nan nan nan nan nan nan nan nan nan nan nan nan nan nan nan nan nan nan nan
Wind_Direction
245 234 227 217 208 214 226 230 240 252 261 273 278 287 289 293 298 296 298 305 309 310 309 308 311 308 306 307 310 307 311 312 308 305 302 301 303 308 310 312 313 313 317 319 322 323 324 328 327 327 327 328 nan nan nan nan nan nan nan nan nan nan nan nan nan nan nan nan nan nan nan nan nan nan nan nan nan nan nan nan nan nan nan nan nan
243 231 225 217 210 215 227 232 241 250 259 271 275 284 287 293 294 295 300 305 310 312 312 308 309 310 308 309 308 309 312 314 311 303 300 300 305 302 305 308 310 313 316 321 321 322 327 333 332 330 330 nan nan nan nan nan nan nan nan nan nan nan nan nan nan nan nan nan nan nan nan nan nan nan nan nan nan nan nan nan nan nan nan nan nan
240 227 223 221 217 219 226 232 242 251 260 269 279 284 282 288 290 293 297 301 307 311 310 312 313 314 311 306 306 309 312 313 304 303 301 300 304 300 298 305 308 312 318 325 331 326 nan nan nan nan nan nan nan nan nan nan nan nan nan nan nan nan nan nan nan nan nan nan nan nan nan nan nan nan nan nan nan nan nan nan nan nan nan nan nan
239 227 223 223 224 226 230 236 245 249 256 262 277 284 282 284 287 291 296 297 306 308 309 312 313 315 311 306 305 305 309 307 304 301 303 301 299 301 301 304 306 311 319 323 nan 323 nan nan 328 nan nan nan nan nan nan nan nan nan nan nan nan nan nan nan nan nan nan nan nan nan nan nan nan nan nan nan nan nan nan nan nan nan nan nan nan
241 232 227 230 230 229 232 238 245 251 256 262 276 283 280 278 280 290 294 298 303 304 308 311 315 317 310 307 304 306 310 312 307 302 295 294 298 298 299 302 305 310 315 320 319 nan nan nan nan nan nan nan nan nan nan nan nan nan nan nan nan nan nan nan nan nan nan nan nan nan nan nan nan nan nan nan nan nan nan nan nan nan nan nan nan
243 237 231 231 231 233 235 239 246 253 262 267 268 273 273 275 280 286 295 299 300 304 310 312 317 320 313 307 304 306 309 311 308 302 300 296 294 294 294 300 305 308 315 nan nan nan nan nan nan nan nan nan nan nan nan nan nan nan nan nan nan nan nan nan nan nan nan nan nan nan nan nan nan nan nan nan nan nan nan nan nan nan nan nan nan
243 240 234 232 232 232 233 239 245 251 255 263 264 269 274 273 280 287 291 294 297 301 308 313 312 317 313 308 306 309 313 311 303 299 299 298 296 295 295 299 303 306 312 nan nan nan nan nan nan nan nan nan nan nan nan nan nan nan nan nan nan nan nan nan nan nan nan nan nan nan nan nan nan nan nan nan nan nan nan nan nan nan nan nan nan
241 240 236 233 231 232 233 237 243 249 252 259 262 266 271 271 276 281 286 290 293 300 307 310 310 313 312 307 307 306 310 307 303 297 295 294 292 292 294 296 301 307 nan nan nan nan nan nan nan nan nan nan nan nan nan nan nan nan nan nan nan nan nan nan nan nan nan nan nan nan nan nan nan nan nan nan nan nan nan nan nan nan nan nan nan
239 240 239 236 232 231 232 236 241 248 253 258 260 263 266 270 274 278 280 283 283 294 301 306 309 312 312 307 306 305 307 303 295 291 290 290 287 291 294 297 301 nan nan nan nan nan nan nan nan nan nan nan nan nan nan nan nan nan nan nan nan nan nan nan nan nan nan nan nan nan nan nan nan nan nan nan nan nan nan nan nan nan nan nan nan
238 240 242 241 238 235 235 236 241 249 254 260 263 263 264 266 268 274 279 283 284 286 294 300 305 309 310 309 306 301 300 294 291 300 293 288 290 289 288 292 nan nan nan nan nan nan nan nan nan nan nan nan nan nan nan nan nan nan nan nan nan nan nan nan nan nan nan nan nan nan nan nan nan nan nan nan nan nan nan nan nan nan nan nan nan
235 237 241 243 243 242 240 240 243 249 254 261 262 263 267 265 266 274 277 279 279 283 290 301 303 306 308 308 308 302 296 290 294 295 295 292 290 287 287 292 nan nan nan nan nan nan nan nan nan nan nan nan nan nan nan nan nan nan nan nan nan nan nan nan nan nan nan nan nan nan nan nan nan nan nan nan nan nan nan nan nan nan nan nan nan
231 236 240 243 244 246 244 246 246 248 254 266 269 267 266 264 266 268 272 277 276 279 287 298 302 299 300 305 307 301 292 284 292 291 289 286 282 287 288 nan nan nan nan nan nan nan nan nan nan nan nan nan nan nan nan nan nan nan nan nan nan nan nan nan nan nan nan nan nan nan nan nan nan nan nan nan nan nan nan nan nan nan nan nan nan
232 237 239 242 244 244 246 248 249 249 258 268 268 265 267 263 263 265 271 271 270 279 287 293 293 296 297 302 303 303 292 287 292 292 288 288 288 290 289 289 294 nan nan nan nan nan nan nan nan nan nan nan nan nan nan nan nan nan nan nan nan nan nan nan nan nan nan nan nan nan nan nan nan nan nan nan nan nan nan nan nan nan nan nan nan
233 239 240 241 244 245 246 248 250 253 259 265 265 264 266 262 262 264 266 267 270 279 285 292 292 295 294 294 294 296 290 289 292 292 290 291 290 288 288 291 293 nan nan nan nan nan nan nan nan nan nan nan nan nan nan nan nan nan nan nan nan nan nan nan nan nan nan nan nan nan nan nan nan nan nan nan nan nan nan nan nan nan nan nan nan
228 237 242 243 245 245 247 250 253 256 261 263 265 266 263 259 261 261 264 270 276 279 280 287 289 292 293 292 296 296 288 294 293 294 294 292 291 285 287 288 291 295 nan nan nan nan nan nan nan nan nan nan nan nan nan nan nan nan nan nan nan nan nan nan nan nan nan nan nan nan nan nan nan nan nan nan nan nan nan nan nan nan nan nan nan
231 238 242 245 247 248 249 252 255 259 261 261 261 263 261 260 263 264 265 269 274 275 281 285 290 291 293 294 296 304 287 298 294 296 295 292 291 282 285 290 292 294 nan 297 300 302 305 nan nan nan nan nan nan nan nan nan nan nan nan nan nan nan nan nan nan nan nan nan nan nan nan nan nan nan nan nan nan nan nan nan nan nan nan nan nan
237 238 242 247 249 250 252 254 255 257 260 262 262 262 263 264 261 264 267 270 275 280 282 287 288 292 294 295 299 300 285 296 294 293 292 291 286 281 283 289 290 292 294 295 299 302 304 307 nan nan nan nan nan nan nan nan nan nan nan nan nan nan nan nan nan nan nan nan nan nan nan nan nan nan nan nan nan nan nan nan nan nan nan nan nan
239 240 243 247 249 251 252 253 254 256 258 262 263 261 257 254 256 263 270 276 277 276 278 279 284 289 294 300 302 300 285 290 292 292 292 292 290 283 283 288 292 291 292 294 295 298 303 308 309 nan nan 306 nan nan nan nan nan nan nan nan nan nan nan nan nan nan nan nan nan nan nan nan nan nan nan nan nan nan nan nan nan nan nan nan nan
240 243 245 246 248 250 251 253 254 257 258 258 257 256 255 259 261 261 266 271 271 272 276 283 285 287 289 294 295 301 285 289 294 295 296 297 292 283 284 289 290 289 291 291 293 293 297 300 305 305 307 301 307 nan nan nan nan nan nan nan nan nan nan nan nan nan nan nan nan nan nan nan nan nan nan nan nan nan nan nan nan nan nan nan nan
241 242 244 247 247 248 250 253 253 255 256 253 251 253 253 256 259 262 264 268 270 277 278 282 285 284 285 290 288 299 288 288 295 299 299 299 298 288 284 291 291 290 290 289 290 291 295 298 301 292 295 304 306 nan nan nan nan nan nan nan nan nan nan nan nan nan nan nan nan nan nan nan nan nan nan nan nan nan nan nan nan nan nan nan nan
240 237 240 245 248 250 250 252 253 251 251 248 248 250 253 256 258 261 265 267 269 273 277 281 284 285 283 287 289 296 286 289 293 299 298 299 299 292 286 288 290 289 288 287 288 290 292 295 298 292 301 303 305 nan nan nan nan nan nan nan nan nan nan nan nan nan nan nan nan nan nan nan nan nan nan nan nan nan nan nan nan nan nan nan nan
240 242 242 245 247 248 248 248 249 247 248 249 250 251 253 256 257 259 260 263 268 272 275 279 281 279 278 281 288 294 290 293 288 296 298 299 300 297 287 286 285 285 286 285 287 288 290 294 294 294 298 300 302 nan nan nan nan nan nan nan nan nan nan nan nan nan nan nan nan nan nan nan nan nan nan nan nan nan nan nan nan nan nan nan nan
239 240 242 243 244 244 245 245 245 247 247 248 252 253 252 255 259 261 264 266 269 273 278 279 281 281 281 282 281 288 286 289 293 290 296 300 303 299 292 286 285 280 282 283 285 286 288 289 284 293 296 298 nan nan nan nan nan nan nan nan nan nan nan nan nan nan nan nan nan nan nan nan nan nan nan nan nan nan nan nan nan nan nan nan nan
237 239 238 241 243 243 242 243 242 244 246 246 247 249 253 256 258 259 262 264 268 275 277 281 280 281 283 285 283 284 281 284 289 294 293 299 300 298 288 281 281 279 279 278 280 283 286 283 288 293 295 298 304 nan nan nan nan nan nan nan nan nan nan nan nan nan nan nan nan nan nan nan nan nan nan nan nan nan nan nan nan nan nan nan nan
236 237 238 238 239 239 241 240 240 239 241 245 246 249 254 258 258 261 266 271 275 276 279 281 281 282 283 281 283 283 278 279 278 285 293 293 296 297 291 280 277 281 278 278 280 277 277 285 292 294 297 299 302 nan nan nan nan nan nan nan nan nan nan nan nan nan nan nan nan nan nan nan nan nan nan nan nan nan nan nan nan nan nan nan nan
233 236 236 238 241 242 241 241 240 239 240 242 244 248 252 257 259 262 264 268 269 272 277 277 277 276 278 279 280 281 278 276 276 278 282 288 289 293 288 280 275 278 274 271 272 275 281 286 289 290 293 296 298 nan nan nan nan nan nan nan nan nan nan nan nan nan nan nan nan nan nan nan nan nan nan nan nan nan nan nan nan nan nan nan nan
227 228 233 236 239 239 240 238 237 238 241 242 244 245 246 251 258 260 261 263 262 266 274 279 279 276 274 270 272 276 277 276 276 278 275 280 280 282 279 277 276 273 271 275 273 271 274 279 283 289 289 296 296 nan nan nan nan nan nan nan nan nan nan nan nan nan nan nan nan nan nan nan nan nan nan nan nan nan nan nan nan nan nan nan nan
208 217 224 227 231 234 233 235 236 238 241 242 243 245 247 251 257 259 260 261 260 266 272 278 277 277 275 274 273 272 273 274 278 281 279 279 281 284 282 280 280 278 275 274 274 273 272 273 278 280 282 286 nan nan nan nan nan nan nan nan nan nan nan nan nan nan nan nan nan nan nan nan nan nan nan nan nan nan nan nan nan nan nan nan nan
216 207 217 213 219 223 226 233 236 238 240 240 240 245 250 253 254 253 255 259 260 263 270 274 275 274 274 277 277 277 274 278 283 285 286 290 288 285 284 285 283 281 280 277 273 nan nan 274 278 281 nan nan nan nan nan nan nan nan nan nan nan nan nan nan nan nan nan nan nan nan nan nan nan nan nan nan nan nan nan nan nan nan nan nan nan
215 208 211 214 221 222 226 231 235 237 240 241 245 245 244 244 247 254 259 263 266 272 274 277 276 273 273 273 277 281 282 282 282 283 284 289 291 295 294 291 289 283 277 281 282 nan nan nan nan nan nan nan nan nan nan nan nan nan nan nan nan nan nan nan nan nan nan nan nan nan nan nan nan nan nan nan nan nan nan nan nan nan nan nan nan
203 207 210 209 208 213 222 226 230 233 238 243 247 251 252 250 247 247 246 247 263 270 272 268 265 267 266 266 262 268 271 271 281 287 289 292 293 291 293 295 294 288 285 nan nan nan nan 272 nan nan nan nan nan nan nan nan nan nan nan nan nan nan nan nan nan nan nan nan nan nan nan nan nan nan nan nan nan nan nan nan nan nan nan nan nan
201 203 209 211 210 212 215 217 221 227 232 235 241 247 250 253 252 247 248 247 246 265 272 269 266 264 264 267 268 263 265 273 281 286 290 293 295 294 293 292 293 nan nan nan nan nan nan 272 nan nan nan nan nan nan nan nan nan nan nan nan nan nan nan nan nan nan nan nan nan nan nan nan nan nan nan nan nan nan nan nan nan nan nan nan nan
210 207 208 213 217 219 218 219 221 225 229 235 239 243 249 254 257 258 253 249 250 252 257 264 266 266 267 270 273 274 273 275 283 288 292 294 nan 294 293 292 291 nan nan nan nan nan nan 273 nan nan nan nan nan nan nan nan nan nan nan nan nan nan nan nan nan nan nan nan nan nan nan nan nan nan nan nan nan nan nan nan nan nan nan nan nan
223 217 215 214 215 217 220 223 224 226 229 234 238 244 249 253 255 258 259 257 253 251 249 252 261 268 269 273 273 275 278 282 286 291 nan nan 291 289 289 286 285 285 286 284 282 276 274 275 nan nan nan nan nan nan nan nan nan nan nan nan nan nan nan nan nan nan nan nan nan nan nan nan nan nan nan nan nan nan nan nan nan nan nan nan nan
230 nan 229 220 222 224 224 221 223 227 232 236 239 244 249 253 255 257 259 259 259 259 260 256 255 261 265 268 273 277 279 282 286 287 nan nan nan 287 283 278 276 274 277 nan nan 273 271 274 nan nan nan nan nan nan nan nan nan nan nan nan nan nan nan nan nan nan nan nan nan nan nan nan nan nan nan nan nan nan nan nan nan nan nan nan nan
232 232 233 232 232 234 233 nan 229 232 236 240 241 243 248 256 259 257 254 254 257 258 256 257 258 252 258 268 271 274 277 281 284 284 nan nan nan 289 285 283 282 278 277 nan nan 270 nan nan nan nan nan nan nan nan nan nan nan nan nan nan nan nan nan nan nan nan nan nan nan nan nan nan nan nan nan nan nan nan nan nan nan nan nan nan nan
nan nan 237 237 237 239 241 241 241 240 242 243 244 247 251 256 257 256 254 254 254 255 257 258 257 256 256 258 262 268 274 280 282 285 287 nan nan nan 283 282 279 274 nan nan 268 nan nan nan nan nan nan nan nan nan nan nan nan nan nan nan nan nan nan nan nan nan nan nan nan nan nan nan nan nan nan nan nan nan nan nan nan nan nan nan nan
239 237 237 nan 239 nan nan nan 247 247 nan nan nan 252 255 255 255 255 253 252 255 256 258 258 259 262 264 263 265 267 269 271 nan nan nan nan 283 281 280 279 276 273 nan nan nan nan nan nan nan nan nan nan nan nan nan nan nan nan nan nan nan nan nan nan nan nan nan nan nan nan nan nan nan nan nan nan nan nan nan nan nan nan nan nan nan
nan nan nan nan nan nan nan 246 249 251 253 nan nan nan nan 253 254 255 nan 253 254 256 256 259 261 262 264 265 267 nan nan 275 278 nan nan nan nan nan 274 271 nan nan nan nan nan nan nan nan nan nan nan nan nan nan nan nan nan nan nan nan nan nan nan nan nan nan nan nan nan nan nan nan nan nan nan nan nan nan nan nan nan nan nan nan nan
nan nan nan nan nan nan nan nan nan nan nan nan nan nan nan 251 252 253 254 255 257 258 258 nan 263 nan nan nan nan nan nan 275 275 nan nan nan nan nan nan nan nan nan nan nan nan nan nan nan nan nan nan nan nan nan nan nan nan nan nan nan nan nan nan nan nan nan nan nan nan nan nan nan nan nan nan nan nan nan nan nan nan nan nan nan nan
nan nan nan nan nan nan nan nan 245 244 nan nan nan nan nan nan nan nan nan nan nan nan nan nan nan nan nan nan nan nan nan nan nan nan nan nan nan nan nan nan nan nan nan nan nan nan nan nan nan nan nan nan nan nan nan nan nan nan nan nan nan nan nan nan nan nan nan nan nan nan nan nan nan nan nan nan nan nan nan nan nan nan nan nan nan
nan nan nan nan nan nan nan nan nan nan nan nan nan nan nan nan 250 252 253 254 254 256 256 255 256 nan nan nan nan nan nan nan nan nan nan nan nan nan nan nan nan nan nan nan nan nan nan nan nan nan nan nan nan nan nan nan nan nan nan nan nan nan nan nan nan nan nan nan nan nan nan nan nan nan nan nan nan nan nan nan nan nan nan nan nan
nan nan nan nan nan nan nan nan nan nan nan nan nan nan nan nan nan nan nan nan nan nan nan nan nan nan nan nan nan nan nan nan nan nan nan nan nan nan nan nan nan nan nan nan nan nan nan nan nan nan nan nan nan nan nan nan nan nan nan nan nan nan nan nan nan nan nan nan nan nan nan nan nan nan nan nan nan nan nan nan nan nan nan nan nan
nan nan nan nan nan nan nan nan nan nan nan nan nan nan nan nan nan nan nan nan nan nan nan nan nan nan nan nan nan nan nan nan nan nan nan nan nan nan nan nan nan nan nan nan nan nan nan nan nan nan nan nan nan nan nan nan nan nan nan nan nan nan nan nan nan nan nan nan nan nan nan nan nan nan nan nan nan nan nan nan nan nan nan nan nan
nan nan nan nan nan nan nan nan nan nan nan nan nan nan nan nan nan nan nan nan nan nan nan nan nan nan nan nan nan nan nan nan nan nan nan nan nan nan nan nan nan nan nan nan nan nan nan nan nan nan nan nan nan nan nan nan nan nan nan nan nan nan nan nan nan nan nan nan nan nan nan nan nan nan nan nan nan nan nan nan nan nan nan nan nan
nan nan nan nan nan nan nan nan nan nan nan nan nan nan nan nan nan nan nan nan nan nan nan nan nan nan nan nan nan nan nan nan nan nan nan nan nan nan nan nan nan nan nan nan nan nan nan nan nan nan nan nan nan nan nan nan nan nan nan nan nan nan nan nan nan nan nan nan nan nan nan nan nan nan nan nan nan nan nan nan nan nan nan nan nan
nan nan nan nan nan nan nan nan nan nan nan nan nan nan nan nan nan nan nan nan nan nan nan nan nan nan nan nan nan nan nan nan nan nan nan nan nan nan nan nan nan nan nan nan nan nan nan nan nan nan nan nan nan nan nan nan nan nan nan nan nan nan nan nan nan nan nan nan nan nan nan nan nan nan nan nan nan nan nan nan nan nan nan nan nan
nan nan nan nan nan nan nan nan nan nan nan nan nan nan nan nan nan nan nan nan nan nan nan nan nan nan nan nan nan nan nan nan nan nan nan nan nan nan nan nan nan nan nan nan nan nan nan nan nan nan nan nan nan nan nan nan nan nan nan nan nan nan nan nan nan nan nan nan nan nan nan nan nan nan nan nan nan nan nan nan nan nan nan nan nan
nan nan nan nan nan nan nan nan nan nan nan nan nan nan nan nan nan nan nan nan nan nan nan nan nan nan nan nan nan nan nan nan nan nan nan nan nan nan nan nan nan nan nan nan nan nan nan nan nan nan nan nan nan nan nan nan nan nan nan nan nan nan nan nan nan nan nan nan nan nan nan nan nan nan nan nan nan nan nan nan nan nan nan nan nan
nan nan nan nan nan nan nan nan nan nan nan nan nan nan nan nan nan nan nan nan nan nan nan nan nan nan nan nan nan nan nan nan nan nan nan nan nan nan nan nan nan nan nan nan nan nan nan nan nan nan nan nan nan nan nan nan nan nan nan nan nan nan nan nan nan nan nan nan nan nan nan nan nan nan nan nan nan nan nan nan nan nan nan nan nan
nan nan nan nan nan nan nan nan nan nan nan nan nan nan nan nan nan nan nan nan nan nan nan nan nan nan nan nan nan nan nan nan nan nan nan nan nan nan nan nan nan nan nan nan nan nan nan nan nan nan nan nan nan nan nan nan nan nan nan nan nan nan nan nan nan nan nan nan nan nan nan nan nan nan nan nan nan nan nan nan nan nan nan nan nan